STARLINK-4200 (52876 NORAD) Tracking and Keplerian Element Data

This shows tracking and keplerian element data for the satellite.

Feedback or suggestion? Click here.




ElementValue
Catalog52876
NameSTARLINK-4200
Epoch Orbit1642
Epoch Day270.25001157
Epoch Year2022
RAAN267.9687
Inclination53.2115
Eccentricity0.0001982
Argument of Perigee45.6353
Mean Anonmoly202.578
Mean Motion15.08835921
Decay Rate5.604E-05
L11 52876U 22062AY 22270.25001157 .00005604 00000+0 36994-3 0 9992
L22 52876 53.2115 267.9687 0001982 45.6353 202.5780 15.08835921 16427

Live tracking and technical data element details for STARLINK-4200 (NORAD 52876). STARLINK-4200 can be tracked NOW for your location showing map with azimuth and elevation plus other details from your city location.

Track the satellite on the map from your city or location and see movement details for azimuth, elevation, latitude, longitude, range, height, and movement on the map or in text.







IsCatalogInMostPopularTable: catalog: 52876, numindb: 5
Update: records affected: 1



GetName: 52876 STARLINK-4200

Hit Count: updated at: Thu, 06 Oct 2022 03:13:46 GMT